Weather in Falkoping

Sweden     58°09′52″N   13°33′25″E
temp.,
°C
wind,
m/s
gust,
m/s
humid.,
%
clouds,
%
prec.,
mm/h
press.,
hPa
HPBL,
m
29 november, mon
mon2901:00−4ne397645 0.0 1006418
04:00−5nne28815 0.0 1006270
07:00−6nne27825 0.0 1007244
10:00−5ne27733 0.0 1008238
13:00−3nne24645 0.0 1007292
16:00−6nne118421 0.0 100611
19:00−5se0080100 0.0 100419
22:00−5ssw118188 0.0 100335
30 november, tue
tue3001:00−5sse1283100 0.0 100060
04:00−5ese2573100 0.0 996161
07:00−5ese2768100 0.0 994226
10:00−4e38743 0.0 994336
13:00−3ne26691 0.0 994440
16:00−6n11875 0.0 99613
19:00−7s1185100 0.0 99711
22:00−5ssw137590 0.0 99880
1 december, wed
wed101:00−5s1375100 0.0 997100
04:00−5se1275100 0.0 99665
07:00−5e2372100 0.0 99487
10:00−4e3865100 0.0 993309
13:00−2ene4959100 0.1 989545
16:00−3ene51169100 0.2 987692
19:00−4ne51390100 0.8 986786
22:00−4ne61591100 1.3 985735
2 december, thu
thu201:00−5nne61589100 1.9 986604
04:00−4nne51371100 0.2 987638
07:00−4n41259100 0.2 989553
10:00−4n3956100 0.0 991393
13:00−3nnw2665100 0.0 993402
16:00−5wsw1189100 0.0 99422
19:00−7sw12895 0.0 99544
22:00−8ssw11855 0.0 99621
3 december, fri
fri301:00−8sse11835 0.0 99616
04:00−8se118449 0.0 99616
07:00−8ese118898 0.0 99622
10:00−6ese238099 0.0 99687
13:00−4e257799 0.0 996149
16:00−5e2887100 0.1 996178
19:00−5e2886100 0.1 997198
22:00−4e3894100 0.2 998282